Theta_e
362 363 365 364 363 364 367 366 365 367 368 364 363 359 351 352 346 344 343 349 345 348 345 342 356 365 369 371 371 372 372 365 365 370 372 371 374 357 347 347 347 347 346 345 344 346 347 348 349 350 350 350 352 352 351 350 348 347 345 343 343 343 342 340 340 341 342 342 342 343 344 346 348 349
366 364 364 364 363 367 365 365 364 367 369 364 363 361 357 355 351 350 345 347 351 347 350 351 352 363 367 366 367 368 371 362 365 370 371 370 371 351 348 348 346 346 344 342 341 343 345 345 345 346 347 347 348 347 347 345 344 343 341 340 340 340 339 339 339 339 340 340 340 341 342 344 344 345
366 366 363 367 364 366 365 365 362 365 366 364 364 363 361 357 356 355 353 346 355 352 351 354 358 359 365 365 365 367 370 367 364 370 372 373 361 354 362 350 347 344 342 341 341 341 340 339 341 343 343 343 343 342 342 341 341 340 338 337 335 336 336 336 336 337 338 338 339 340 340 341 342 342
365 367 364 365 365 365 364 364 364 365 366 365 363 364 364 362 359 358 355 352 351 359 354 356 359 361 363 368 367 368 369 370 361 372 373 375 364 370 372 354 348 343 342 341 340 338 336 335 338 340 340 340 340 340 339 338 338 336 334 332 331 331 331 333 334 334 334 335 336 337 338 339 340 341
366 367 365 365 366 368 364 363 361 360 363 365 363 365 364 360 362 359 358 353 353 360 363 359 359 362 364 362 369 366 364 366 369 366 371 374 369 369 372 372 346 342 341 340 338 337 335 334 336 337 338 338 337 336 335 334 333 332 331 329 327 327 328 329 331 331 331 331 332 333 335 336 337 339
365 366 365 364 364 368 365 362 360 359 358 359 358 361 360 359 360 364 358 356 355 354 362 363 366 363 366 360 370 367 364 365 368 367 370 368 367 369 372 372 367 342 343 340 338 337 334 333 333 334 334 334 333 332 331 330 328 329 327 326 325 325 325 326 327 327 327 328 329 330 332 333 335 336
365 364 364 362 363 364 362 362 360 359 360 360 360 360 361 361 360 364 363 359 356 355 356 364 360 362 365 363 364 367 367 369 369 369 367 364 364 368 370 370 366 343 343 340 338 336 334 332 331 331 331 331 330 329 326 325 324 325 323 323 323 323 323 322 323 324 324 324 325 327 328 330 331 332
364 362 363 362 362 363 362 362 362 362 362 362 363 362 364 365 362 364 366 364 359 358 355 360 361 362 362 363 367 368 368 366 367 367 368 369 366 365 366 368 367 352 342 340 337 336 334 331 329 328 328 327 325 325 324 323 322 321 322 321 321 321 320 319 320 321 321 321 320 323 325 327 328 329
364 364 362 361 364 365 362 362 361 360 362 362 361 361 363 363 363 364 364 365 364 360 358 358 364 367 365 366 367 368 363 364 367 371 370 365 367 368 364 365 364 352 339 343 338 335 334 332 330 328 327 326 325 324 324 323 321 320 318 317 319 320 320 319 318 319 319 318 319 320 322 324 325 326
365 363 364 364 364 364 362 360 361 364 363 363 361 361 362 363 364 365 365 366 365 363 361 361 359 365 362 363 366 368 366 362 361 363 367 370 368 368 364 363 362 362 362 364 356 337 334 329 328 329 328 325 324 324 324 324 322 320 318 315 317 319 317 316 316 317 317 317 317 317 319 320 323 325
363 363 363 364 365 364 364 362 361 364 364 362 362 363 364 364 363 362 362 364 363 362 360 360 361 360 363 363 359 366 368 366 364 361 360 361 368 369 367 364 365 363 362 352 342 346 343 339 336 324 324 325 325 324 324 325 322 321 318 317 318 316 316 317 315 314 315 317 316 317 317 317 320 323
360 361 362 360 362 364 366 365 364 365 363 365 363 363 364 364 363 361 360 362 360 359 358 357 355 357 360 362 363 366 366 363 364 366 360 357 359 363 367 368 364 365 364 366 354 339 337 335 332 327 328 329 327 325 327 328 327 323 319 319 322 320 316 316 315 315 315 315 315 315 316 317 318 319
361 361 361 361 360 364 365 364 363 363 364 363 362 365 365 364 363 362 361 360 359 359 357 356 359 358 358 359 360 358 359 359 357 363 363 360 363 364 362 365 369 365 362 365 362 361 361 354 351 350 349 343 336 331 328 331 327 323 320 320 321 319 318 316 316 315 314 314 314 314 315 316 316 317
360 360 359 359 363 362 361 358 354 350 352 354 358 362 367 365 363 361 361 360 359 358 356 355 355 354 353 353 358 357 358 362 364 362 364 360 362 364 362 365 367 367 363 362 363 364 362 355 351 350 348 342 343 342 339 330 326 323 321 321 320 319 319 317 316 315 314 314 314 314 313 314 316 316
358 359 361 362 362 363 360 360 351 349 347 347 348 351 356 362 365 362 360 359 359 357 356 356 356 354 355 356 358 356 356 360 360 360 362 360 360 358 355 352 362 371 366 365 362 364 364 358 352 350 346 342 341 338 333 326 324 322 322 321 320 319 320 319 318 316 315 315 315 314 313 314 315 315
358 358 358 360 360 362 363 363 365 358 349 344 344 344 346 349 352 354 361 361 360 360 358 356 356 356 356 358 361 357 356 361 364 365 362 362 360 358 357 357 356 367 368 363 360 359 363 359 353 350 347 343 342 334 329 324 321 321 321 320 319 319 319 319 319 318 316 316 316 315 314 314 315 314
359 360 359 358 360 359 360 361 362 366 368 350 342 343 344 346 345 340 340 346 361 362 362 360 358 359 360 360 361 362 364 367 362 362 360 362 361 360 358 358 358 364 370 364 358 356 359 356 353 351 347 343 340 329 327 321 323 321 320 320 319 319 319 318 318 318 317 316 314 312 312 313 313 313
357 360 360 359 359 361 363 363 362 363 365 366 366 362 360 361 358 347 339 338 340 349 359 361 360 364 366 362 364 367 369 364 361 361 359 362 360 360 359 363 364 367 367 361 359 354 357 358 354 351 350 344 341 342 327 320 321 320 319 319 318 317 318 318 317 316 316 316 314 313 311 310 310 311
357 359 360 360 358 360 362 363 362 362 363 365 364 364 363 363 364 365 362 359 358 357 357 360 362 365 366 368 368 369 370 368 366 365 364 363 363 364 366 363 363 361 366 364 360 350 356 357 353 352 350 343 342 341 324 321 321 320 319 319 318 316 316 317 317 316 315 315 314 313 311 310 310 310
359 359 359 360 359 359 360 357 345 352 362 362 362 361 362 362 362 362 360 348 351 362 363 363 361 361 362 352 366 368 365 368 369 367 366 364 362 359 356 354 358 357 362 363 358 354 355 359 352 352 349 345 343 342 341 323 322 323 320 320 318 315 315 315 316 316 315 315 314 312 311 309 308 311
358 359 359 360 358 358 360 351 335 336 349 359 359 359 359 359 358 358 362 345 337 337 335 335 337 336 336 334 332 331 333 357 361 363 357 356 359 356 352 353 354 355 359 360 360 355 352 357 355 352 348 346 345 344 343 341 323 321 322 320 317 314 313 314 315 315 315 314 314 312 311 309 309 313
357 358 355 360 359 358 359 341 332 331 346 357 357 358 357 357 357 359 359 359 357 333 330 331 332 333 333 333 332 332 331 331 347 360 354 359 359 354 355 351 354 357 358 357 361 356 352 356 356 350 348 345 344 342 344 342 335 323 322 316 314 314 315 313 313 314 314 314 313 312 310 309 312 328
355 356 355 355 352 354 351 335 330 327 342 357 358 358 358 355 356 357 360 359 359 361 357 357 353 350 342 346 351 354 338 334 345 358 360 361 358 354 355 356 354 349 351 359 366 354 354 353 353 350 345 342 345 344 343 339 341 338 336 333 333 314 316 314 314 312 313 313 312 312 310 309 313 328
354 354 356 351 333 330 331 329 325 323 326 354 359 358 356 356 355 359 360 362 361 362 361 362 363 363 366 367 363 362 361 349 350 355 359 360 360 359 358 357 355 349 351 364 363 357 357 356 352 352 349 344 341 343 342 341 341 340 337 333 330 322 322 321 319 314 313 313 311 311 309 309 310 325
349 352 353 354 339 325 324 323 321 319 318 332 358 360 358 358 359 356 360 360 362 361 362 362 361 362 365 366 366 365 365 359 355 353 356 359 360 361 358 357 355 354 357 363 348 362 357 355 353 350 347 346 343 341 343 341 342 340 339 334 330 330 330 329 326 328 318 314 310 310 310 309 310 316
349 350 352 356 344 325 322 320 319 317 317 319 351 359 336 335 335 358 360 360 360 361 361 359 358 359 359 360 361 362 361 359 358 358 359 359 360 361 361 360 358 356 358 366 338 360 357 354 353 348 346 343 342 340 339 338 341 341 341 338 333 331 330 328 327 327 328 327 327 318 318 311 312 312
349 352 354 355 343 326 318 316 316 316 316 320 337 328 327 328 330 343 356 358 358 358 358 358 358 358 359 359 359 361 361 362 363 361 362 363 362 363 363 365 367 365 366 366 355 360 359 355 355 350 346 346 341 340 337 335 337 342 340 336 333 331 329 327 326 325 326 325 327 315 313 311 311 313
351 352 354 352 331 321 315 313 315 316 318 333 322 319 322 326 333 349 354 354 357 356 355 354 354 356 358 359 359 360 363 362 367 365 364 365 365 365 364 366 363 367 367 363 358 358 358 356 354 353 351 346 340 338 336 337 338 338 334 336 332 329 328 327 327 326 326 327 327 326 326 325 328 328
352 338 329 327 323 321 316 314 315 316 316 316 320 319 321 331 345 349 352 354 356 354 353 354 356 357 358 360 362 366 368 369 368 369 365 364 365 365 365 363 362 361 361 361 361 359 358 356 355 354 350 347 341 340 337 336 336 335 334 332 326 325 327 329 327 326 326 327 326 324 324 324 325 326
331 328 324 322 322 321 325 336 341 344 344 323 319 321 327 342 346 350 352 354 354 354 354 354 354 356 359 360 364 367 368 366 364 364 362 361 359 359 356 355 356 359 360 361 360 360 359 358 355 354 348 345 341 338 339 336 335 335 334 330 329 330 329 328 327 327 325 325 325 324 325 325 325 324
342 342 337 341 332 333 331 332 333 336 339 342 337 336 339 343 348 350 353 354 355 356 355 355 356 357 360 364 365 365 364 362 364 365 359 359 358 357 356 353 352 352 355 359 358 358 358 358 356 353 346 343 341 341 341 337 333 333 333 331 329 323 326 330 329 327 327 327 326 325 325 324 325 325
345 347 338 337 347 349 349 347 346 348 351 350 348 348 347 347 350 349 349 352 358 359 359 359 359 359 361 360 361 362 362 362 362 361 359 356 355 355 355 351 350 351 352 352 351 352 352 356 354 351 348 346 341 342 341 337 333 332 331 331 330 326 330 325 325 326 329 327 325 325 326 324 323 326
347 348 347 348 347 348 347 348 350 350 351 351 352 353 353 353 353 353 352 352 354 356 357 357 358 358 361 360 361 359 357 357 358 362 358 359 357 357 355 351 352 351 349 348 350 350 352 352 352 351 349 349 347 344 337 332 333 333 331 331 328 326 327 327 327 327 333 328 326 325 326 326 325 325
344 345 345 347 348 349 349 349 348 349 351 352 352 353 343 351 353 353 353 354 354 358 356 358 358 358 359 360 359 357 355 356 357 356 347 356 358 355 351 350 351 353 352 352 351 350 346 344 343 341 341 339 339 342 339 332 330 332 332 331 328 326 327 330 329 331 332 327 326 323 324 326 325 324
340 344 345 345 347 348 349 349 349 350 351 351 351 352 353 354 353 350 353 355 354 354 355 356 358 357 357 356 355 353 353 354 355 356 353 353 355 353 352 349 350 349 349 349 349 346 342 338 337 335 334 334 332 336 337 340 332 331 333 332 330 328 329 330 329 332 330 329 325 323 323 324 325 325
340 343 346 347 348 349 348 349 350 351 351 353 354 354 353 354 354 355 354 358 358 356 356 356 354 356 353 353 352 353 352 353 355 355 349 349 351 351 351 350 348 349 348 347 346 345 341 338 335 332 330 330 331 330 331 332 334 334 330 327 329 331 331 332 333 331 329 326 326 324 321 322 324 327
345 345 347 348 350 350 349 351 351 352 353 354 355 356 355 355 356 358 359 352 356 355 355 355 355 353 352 351 351 349 352 354 352 350 347 348 347 345 345 345 346 347 346 345 346 344 342 337 335 333 331 327 326 326 327 337 324 328 337 329 331 332 333 333 333 330 328 328 328 325 323 323 324 327
346 348 349 348 350 351 351 351 351 352 354 355 357 357 356 357 359 362 363 360 355 353 353 352 350 351 352 352 351 351 353 353 351 349 346 346 344 342 342 343 344 345 345 344 341 340 339 336 333 332 331 327 324 322 325 333 329 326 322 335 330 332 333 333 328 326 329 330 327 327 327 324 324 326
349 349 349 350 350 352 352 352 353 353 356 356 355 356 357 357 358 360 360 357 356 353 352 351 351 353 351 353 350 349 348 348 346 346 345 344 343 343 343 343 343 345 340 337 337 337 333 332 332 333 331 328 325 326 325 325 326 330 328 316 331 333 334 331 327 327 327 328 330 330 330 332 328 317
347 349 351 351 352 353 353 356 356 356 355 356 356 357 356 354 357 358 358 356 355 353 353 351 353 347 351 350 348 349 349 348 347 348 346 343 342 343 343 343 343 341 336 334 332 330 330 331 331 331 329 330 334 335 333 334 335 336 337 325 312 327 334 333 329 327 328 329 331 328 326 328 327 329
347 348 350 352 353 354 354 355 356 356 356 357 358 348 357 358 358 358 359 359 354 353 352 353 352 352 350 349 349 347 346 345 346 346 346 344 339 338 338 335 342 340 336 335 334 331 330 332 333 326 334 335 335 335 330 327 325 327 328 331 313 310 313 316 335 334 329 333 330 326 325 325 326 326
348 349 352 354 354 355 356 356 356 356 357 357 357 358 359 359 358 347 355 352 356 353 352 352 351 348 348 348 347 344 345 344 343 342 342 343 343 340 336 338 339 338 335 334 334 334 336 337 335 333 333 334 333 329 324 326 326 327 330 332 335 314 310 310 311 313 334 333 329 326 324 325 325 323
349 351 351 352 355 355 357 357 358 357 356 357 357 358 358 358 358 356 354 353 355 352 350 350 350 349 347 347 347 346 345 344 343 342 341 341 341 340 336 335 336 338 337 337 337 337 336 336 336 334 333 328 328 327 326 327 329 329 331 332 331 330 330 312 310 309 310 311 312 319 328 326 323 320
353 351 352 354 355 356 358 359 358 358 358 358 358 359 357 357 358 356 354 353 353 352 350 349 350 346 345 346 347 347 345 344 343 343 341 338 337 339 337 335 333 336 338 339 334 333 335 336 334 331 328 328 327 326 326 327 327 327 329 329 332 332 331 329 328 315 312 312 311 310 309 311 314 314
356 354 353 354 356 357 358 359 359 358 357 356 357 357 356 357 355 355 353 353 353 352 347 346 345 345 345 345 345 342 342 335 338 340 337 336 334 335 336 336 333 334 334 333 332 332 333 331 331 330 330 330 330 328 327 327 328 327 328 331 330 329 330 329 327 327 328 329 319 311 311 311 312 312
Wind_Speed
3 2 3 3 3 2 1 3 2 1 1 2 1 1 2 1 2 4 4 3 4 3 5 4 2 4 5 5 5 4 4 5 6 6 6 6 5 8 10 8 8 9 9 9 8 8 8 7 6 7 8 8 8 8 9 10 11 11 12 12 12 12 13 12 12 12 12 12 11 11 11 11 11 11
3 3 3 3 3 2 3 3 2 1 2 2 2 1 2 2 2 2 4 5 2 3 2 3 3 4 6 5 4 3 4 4 7 6 6 6 6 9 7 7 8 9 9 8 8 7 6 5 6 7 8 8 9 9 10 11 11 11 11 12 12 12 12 12 12 12 11 12 12 12 11 11 11 10
3 3 4 3 3 3 3 3 2 2 2 2 2 2 2 3 3 2 2 5 0 1 4 3 4 5 5 6 5 4 4 3 5 6 6 6 7 9 3 7 8 8 7 6 6 5 5 6 8 8 9 9 10 10 10 10 10 10 10 11 12 12 12 12 12 12 13 13 13 13 13 12 11 10
3 4 5 4 4 3 3 3 3 3 2 2 2 2 2 2 3 2 3 4 5 2 4 4 4 3 5 5 4 6 5 2 1 6 5 6 5 4 4 10 8 7 5 4 4 6 7 7 8 8 9 9 10 10 10 9 8 9 9 10 10 11 11 11 11 12 13 13 14 14 14 14 13 11
4 5 5 5 4 3 4 4 4 4 4 3 3 2 3 3 3 3 3 5 6 4 2 3 4 4 4 4 3 5 6 6 6 6 6 6 6 5 4 3 9 6 3 3 7 8 7 7 7 9 9 9 9 9 8 8 8 8 9 10 10 9 10 10 12 13 12 13 13 14 14 14 14 13
5 5 5 6 5 4 5 5 5 5 4 5 5 4 3 4 4 3 4 4 5 7 3 3 2 4 2 5 2 4 6 7 6 7 6 5 5 5 3 3 6 8 4 6 9 8 7 7 8 8 8 8 8 8 8 7 8 9 10 9 9 9 10 11 12 13 13 13 14 13 14 14 14 14
6 6 6 7 6 4 6 6 6 5 5 4 5 5 4 4 4 3 4 4 6 7 6 4 5 3 3 4 5 5 4 4 3 5 6 5 5 3 3 3 2 10 5 8 9 8 8 7 7 7 7 7 7 7 6 6 7 8 9 10 9 10 11 12 13 13 13 14 14 14 13 13 14 14
7 8 7 7 7 6 6 6 5 5 5 5 4 5 4 4 5 4 4 5 5 6 7 5 5 4 4 4 3 3 4 4 3 3 4 4 4 4 3 1 2 8 8 9 10 9 8 7 7 7 7 7 8 7 6 7 8 9 9 9 9 11 11 12 13 13 14 14 13 14 14 13 13 13
8 8 8 8 7 6 7 6 6 5 6 5 5 5 5 4 4 4 4 5 5 5 7 7 4 3 4 3 3 3 4 5 4 3 3 3 3 4 4 3 0 9 12 12 11 9 8 7 7 6 6 7 7 6 6 7 8 8 8 9 11 11 11 12 12 12 13 14 14 14 15 14 13 13
9 9 9 8 8 7 7 7 6 6 6 6 6 6 5 5 4 5 5 5 5 6 6 7 7 4 4 4 3 3 3 5 6 5 3 3 1 3 4 4 3 3 1 1 6 9 9 9 8 6 6 7 7 6 7 7 7 8 8 10 11 10 11 11 12 13 13 14 14 14 14 14 13 13
10 10 9 9 9 9 8 8 7 6 7 6 7 6 6 5 5 5 5 5 5 6 6 6 6 6 4 3 4 2 2 4 5 5 4 4 1 1 3 4 3 3 1 8 7 7 7 7 6 6 6 6 6 7 7 6 7 7 8 10 10 10 10 10 12 12 13 14 14 14 14 13 13 13
10 10 10 10 10 9 9 8 8 7 7 6 7 6 6 6 6 6 5 5 5 6 6 6 6 6 5 4 4 4 3 4 4 3 3 5 5 4 3 4 4 2 3 3 5 9 9 8 9 9 7 5 3 1 6 7 6 6 8 8 9 9 9 10 12 12 12 13 14 14 14 13 13 13
10 10 10 10 11 10 10 10 9 8 6 6 6 6 6 6 6 6 6 5 5 6 6 6 6 6 5 5 4 5 4 4 4 3 3 5 5 4 5 4 3 2 3 3 4 3 2 4 4 4 3 3 5 5 4 6 8 7 6 7 8 9 10 11 12 12 12 12 13 14 13 13 13 13
10 11 10 10 12 11 11 11 12 12 11 11 10 7 6 6 6 6 6 6 6 6 7 7 6 7 6 5 4 5 5 4 4 4 4 5 4 4 5 5 3 2 3 4 4 2 3 3 3 3 3 3 2 1 1 5 5 4 5 6 7 8 10 11 11 11 11 12 12 13 13 13 12 12
10 10 10 10 10 11 12 12 14 13 14 14 14 14 12 9 7 7 7 7 7 7 7 7 7 7 7 7 6 6 6 4 5 4 4 5 5 5 5 6 3 3 2 4 5 3 2 3 3 3 2 3 2 1 3 3 2 3 5 5 7 8 9 10 11 11 11 11 11 12 12 13 12 12
10 10 10 9 8 9 11 11 10 13 15 15 15 15 14 14 14 12 10 8 7 8 8 7 8 8 8 6 5 6 5 4 4 5 5 5 6 6 6 6 6 1 2 5 6 6 5 4 3 3 3 3 2 3 5 2 2 4 5 5 7 8 9 10 10 10 10 10 10 9 10 11 12 12
10 9 9 9 8 8 12 11 11 10 10 14 17 16 15 14 15 14 15 14 12 9 8 9 9 8 7 7 7 6 6 4 6 5 5 5 6 6 7 7 6 5 2 4 6 7 2 4 4 4 3 3 3 4 6 2 2 3 4 5 7 8 9 9 9 10 10 10 10 10 11 10 10 10
11 11 10 10 9 9 9 9 11 11 11 9 9 10 10 11 13 15 16 16 17 14 11 10 10 9 8 8 8 7 6 6 7 6 7 6 7 7 8 8 7 5 2 5 6 7 6 5 5 4 3 4 3 2 6 2 2 2 4 5 6 7 8 8 9 9 9 10 10 11 11 11 12 12
12 12 11 11 12 11 10 9 11 11 10 10 9 9 10 11 11 11 12 12 11 11 12 12 13 12 10 10 10 8 7 8 8 7 8 7 7 7 7 7 5 6 5 6 6 7 5 3 4 4 3 4 4 4 7 5 1 1 3 4 6 6 7 8 9 9 9 10 11 11 12 13 13 12
11 12 12 11 12 12 12 12 14 13 10 10 10 11 11 10 10 11 12 12 12 12 10 11 12 11 11 9 9 7 5 6 5 5 5 5 6 6 6 7 5 6 4 6 7 7 7 3 4 3 3 3 4 4 4 10 6 2 2 3 4 5 6 7 9 10 10 11 12 12 12 14 14 14
12 12 12 12 12 12 13 13 14 15 13 11 12 11 11 10 10 11 9 13 17 16 14 13 12 13 12 11 11 11 7 6 6 7 7 8 6 6 7 7 6 6 5 5 7 7 8 4 4 4 3 3 3 4 4 5 9 6 4 2 2 4 6 7 8 10 11 11 12 12 14 15 16 14
11 13 16 14 13 13 13 14 14 15 13 12 12 12 12 12 12 12 11 8 9 17 17 16 17 16 15 14 13 12 10 9 7 8 9 7 6 8 7 7 6 6 6 6 6 7 8 6 4 4 2 2 4 4 4 4 7 7 7 6 3 4 6 7 7 8 10 10 11 12 14 16 16 8
12 12 13 18 16 14 15 16 14 15 14 13 13 13 12 12 13 12 10 10 10 7 7 9 10 10 12 11 9 10 14 12 12 11 11 8 7 8 7 7 7 9 8 5 9 8 7 7 5 5 3 4 3 4 4 5 4 4 5 6 5 5 5 5 5 5 7 8 9 11 13 14 14 8
11 12 12 13 19 20 19 17 16 15 17 14 12 12 12 12 14 11 11 11 10 9 10 9 9 9 8 8 8 8 8 9 12 12 11 10 9 8 8 8 8 9 7 3 10 8 6 5 6 6 6 5 3 4 4 4 5 4 3 3 2 6 5 3 6 8 5 4 6 8 11 11 12 8
12 11 12 12 15 20 20 20 19 16 17 16 13 13 13 14 13 11 10 10 11 11 10 9 8 8 7 7 7 7 7 8 9 10 11 11 10 10 9 9 9 9 9 4 11 7 8 5 6 5 5 5 4 2 3 3 4 5 4 3 2 3 2 3 3 2 4 8 8 5 7 7 8 7
13 13 12 11 14 18 19 20 20 19 16 18 12 14 17 17 15 12 11 10 9 8 8 8 8 7 7 7 8 8 8 8 9 9 10 11 12 11 11 10 9 9 9 7 15 9 8 6 6 6 5 5 6 4 3 4 5 5 4 3 2 2 1 1 1 1 2 3 1 4 1 1 1 1
14 12 12 12 14 15 17 18 19 18 17 13 13 20 19 17 18 13 10 10 9 9 9 8 7 7 8 8 8 8 8 8 9 9 10 10 11 10 9 10 9 9 7 4 10 9 8 8 6 8 7 6 6 4 5 5 4 4 5 5 4 3 2 1 1 1 1 1 1 2 6 12 9 7
13 13 12 11 14 15 17 18 17 17 15 13 19 20 21 19 15 8 9 8 9 9 9 10 11 10 9 9 9 8 8 9 8 9 9 9 9 8 8 9 9 7 7 7 8 9 8 8 7 7 7 6 7 7 6 4 3 4 4 4 4 3 3 2 2 2 2 1 2 2 3 2 1 1
13 13 14 14 15 16 16 17 16 13 15 20 20 19 19 16 8 9 9 10 9 12 12 11 10 10 10 10 10 8 8 8 7 7 7 7 7 7 7 8 9 9 7 8 8 9 9 10 9 6 7 6 7 6 5 4 3 3 4 4 5 5 4 4 3 2 2 2 2 2 3 3 3 2
18 16 14 16 16 15 13 10 8 8 11 17 20 20 16 9 10 9 9 9 10 11 11 10 11 11 9 9 8 8 7 7 8 8 9 7 7 8 9 8 8 8 9 10 11 11 11 10 10 8 7 6 6 6 5 5 3 3 4 5 4 3 4 4 4 3 2 2 2 2 2 2 2 4
12 14 13 11 12 11 14 15 14 14 14 12 11 10 10 11 11 11 11 12 11 11 10 10 10 9 9 7 6 6 7 8 8 8 10 9 9 9 8 9 9 8 9 10 10 10 10 10 9 10 8 7 6 6 4 4 4 4 4 5 5 6 4 5 5 4 3 2 2 2 3 3 2 2
14 13 13 13 10 8 8 9 8 10 10 11 11 10 10 10 11 13 13 12 10 10 9 9 8 8 8 8 8 8 8 8 8 8 9 10 10 9 9 9 10 9 9 9 10 8 7 8 8 8 8 8 8 6 5 5 5 5 4 5 6 6 4 5 5 5 4 2 3 3 3 3 2 2
5 8 11 11 12 11 12 11 10 11 10 11 11 11 10 9 9 9 9 11 11 10 10 10 10 10 9 9 7 8 10 11 10 7 9 9 10 9 10 12 11 10 10 9 9 9 9 8 5 5 6 6 6 7 6 5 5 5 6 6 6 6 6 6 5 4 4 3 4 5 4 4 3 3
9 10 12 13 13 13 12 13 13 13 12 12 12 12 12 11 10 11 10 11 11 10 11 10 10 9 9 8 8 10 11 10 9 7 9 10 8 9 11 11 12 10 10 10 10 10 9 6 5 4 3 3 2 3 6 6 5 5 6 6 7 7 7 6 5 5 5 4 4 5 5 5 5 4
11 11 12 13 13 14 13 13 14 13 12 12 12 12 11 11 11 11 11 10 10 10 9 9 9 9 8 9 9 12 12 11 10 8 9 11 10 11 11 11 10 9 10 10 10 8 8 7 7 6 4 3 3 3 4 4 5 5 5 7 7 7 6 6 5 5 5 4 4 5 6 6 5 6
12 12 13 12 13 13 14 14 13 13 13 12 12 11 11 12 11 11 12 10 9 9 10 10 10 10 10 12 11 12 13 10 9 6 8 10 10 9 10 10 9 10 10 11 7 6 8 8 9 8 8 7 7 8 7 9 9 5 6 6 7 6 6 5 5 5 5 6 5 5 6 6 4 4
12 12 12 13 13 13 14 13 12 12 13 12 11 11 12 12 11 11 11 9 10 11 11 10 9 10 12 12 12 12 12 10 11 8 10 9 9 8 8 8 9 10 8 8 7 8 8 9 9 8 8 7 8 9 6 5 8 9 5 7 6 7 6 5 5 6 7 7 6 7 7 7 7 4
13 12 12 13 13 13 12 12 12 12 12 12 11 11 11 11 10 9 9 10 11 10 9 11 13 12 12 9 11 12 11 10 10 10 10 9 9 9 9 9 10 11 10 6 6 7 9 9 9 8 9 9 8 6 4 3 5 7 12 8 8 7 6 5 7 7 7 7 8 8 7 8 8 7
11 12 12 13 13 12 12 12 12 12 12 11 11 11 10 10 11 10 11 11 12 13 12 11 11 11 11 11 10 10 11 11 11 11 9 9 9 10 10 11 10 9 6 7 6 5 7 7 8 9 10 10 11 10 8 8 9 7 11 18 10 7 6 6 8 7 7 7 7 6 7 7 5 1
14 13 13 13 12 11 11 11 11 12 11 11 10 10 10 11 11 11 11 11 13 13 12 12 11 10 10 10 11 12 12 14 14 12 10 9 9 9 11 11 12 11 9 8 7 8 9 9 10 12 10 7 5 5 6 5 2 3 4 10 15 11 8 7 8 7 7 6 4 5 6 5 6 4
12 13 13 13 12 12 12 12 11 10 10 10 10 10 11 10 11 11 10 10 11 11 12 12 11 10 11 11 12 12 12 12 13 11 10 10 10 11 13 11 8 9 11 10 10 10 11 11 13 11 7 4 4 4 3 6 7 6 7 6 12 16 11 4 4 6 7 4 4 6 6 6 6 5
12 13 13 13 13 12 12 12 11 10 10 10 10 10 10 11 11 11 9 10 10 11 11 11 11 11 11 11 12 12 13 13 11 11 9 10 10 11 10 9 12 13 13 12 10 7 6 7 6 7 6 6 5 7 9 8 8 8 7 6 5 6 11 13 10 7 5 4 5 6 6 5 5 6
11 13 13 13 12 11 11 11 10 10 10 10 10 10 10 11 10 10 11 12 10 11 11 11 11 11 11 11 12 12 12 12 11 11 10 10 10 11 9 13 15 11 12 11 7 5 7 9 9 9 8 8 9 9 9 10 8 7 6 7 6 6 5 8 10 10 9 9 8 6 5 6 7 10
13 14 13 12 11 11 10 10 10 9 10 10 10 10 11 11 11 10 10 12 11 10 9 10 9 11 11 12 11 10 10 9 10 11 11 10 12 12 11 11 12 11 8 8 8 8 8 8 9 10 9 8 8 9 10 9 8 7 8 9 5 6 6 5 5 7 7 10 13 13 14 13 11 10
11 12 12 10 10 10 10 9 9 9 10 10 11 11 10 10 10 9 11 11 10 9 10 10 11 11 11 10 9 12 10 10 8 8 8 9 9 9 9 10 11 10 8 10 8 7 7 7 7 7 7 7 7 7 7 7 7 8 8 6 6 6 5 5 5 5 6 5 11 15 14 13 13 14
Wind_Direction
241 233 228 254 273 281 275 272 267 278 262 262 275 282 288 275 310 342 340 0 355 31 15 359 59 355 347 339 354 357 355 13 328 348 348 349 346 11 348 342 352 354 1 1 354 351 358 340 334 354 4 8 12 13 17 17 17 20 18 16 12 8 8 3 355 350 346 340 336 333 330 329 325 319
232 245 237 234 250 231 238 240 267 239 249 254 246 241 230 222 280 342 322 328 334 346 360 345 6 342 333 334 338 355 343 37 327 349 344 349 359 342 325 359 9 12 12 10 359 4 357 350 11 22 23 25 27 31 30 31 34 33 31 28 20 17 16 12 5 359 353 353 348 343 339 336 334 331
224 232 241 228 245 237 261 274 260 252 250 258 248 240 213 217 238 272 283 302 69 320 324 336 341 329 319 329 332 337 337 7 336 340 344 349 347 306 74 45 35 30 30 13 13 19 26 29 33 34 40 40 42 43 41 43 45 45 43 37 28 22 17 12 9 8 8 2 357 353 350 346 343 340
220 225 236 234 243 232 248 261 259 246 247 254 258 242 219 213 227 235 273 274 293 252 303 314 311 314 328 308 320 336 333 356 263 343 335 344 308 338 25 94 53 58 40 32 52 55 47 42 43 49 50 47 47 49 51 50 50 50 45 40 30 18 11 5 9 11 9 4 0 358 359 356 354 351
223 227 236 245 244 232 253 262 268 263 249 242 245 229 223 236 203 227 250 278 289 287 222 274 296 319 312 318 317 326 336 343 350 334 347 343 354 353 358 79 95 79 80 84 74 64 55 52 61 61 56 51 51 53 52 48 45 42 41 36 29 19 11 10 16 14 7 3 359 358 359 358 359 1
234 228 235 243 243 227 246 259 262 263 261 254 256 239 249 256 251 210 255 269 283 294 274 264 290 293 253 309 321 325 332 340 337 338 337 348 352 349 347 341 102 99 97 88 81 73 67 72 70 71 67 60 58 58 50 47 41 42 39 33 24 20 18 17 18 15 11 5 0 358 359 358 360 2
236 237 240 247 245 235 243 245 256 259 258 266 270 269 259 260 261 230 224 258 277 291 296 289 290 297 300 303 320 322 316 308 307 319 336 339 348 348 331 333 78 103 104 99 88 81 82 77 77 80 80 75 72 63 54 48 45 43 40 35 27 24 22 19 17 15 10 6 2 359 0 360 360 1
235 240 244 249 247 242 244 247 251 249 246 246 250 256 246 243 255 254 225 231 261 281 290 293 294 310 311 306 304 304 297 297 307 312 318 308 333 336 327 302 335 115 127 107 95 94 90 87 88 87 87 87 78 70 59 49 47 44 39 35 33 30 25 20 15 9 7 4 358 357 360 3 3 360
243 243 245 251 240 229 240 243 240 239 234 239 244 248 242 237 242 240 234 236 236 258 275 290 287 282 279 278 280 281 305 306 297 283 269 321 325 324 331 320 102 147 144 118 111 106 102 99 93 92 94 89 82 74 58 49 44 43 41 38 36 32 25 21 15 12 8 3 357 356 360 3 3 2
240 244 246 245 241 235 234 243 241 236 234 234 237 240 239 236 228 231 234 231 237 250 264 276 287 271 285 291 282 270 280 301 310 306 278 257 281 322 331 345 331 337 239 313 129 130 122 103 92 96 98 93 91 77 59 48 43 38 37 38 36 30 26 23 20 16 11 6 359 356 357 0 2 8
238 242 244 242 239 240 239 242 241 234 232 234 240 233 234 233 228 235 238 230 239 247 261 268 269 278 268 262 292 244 244 278 277 296 312 315 281 285 322 321 326 311 94 110 63 68 70 97 110 113 107 104 99 83 59 55 48 35 36 37 35 31 27 27 26 20 13 7 2 356 357 358 359 8
239 239 241 244 241 238 237 240 243 239 239 234 241 235 226 226 229 242 242 238 244 250 255 262 273 274 278 266 266 262 246 270 261 248 305 313 318 319 302 296 304 306 275 270 145 126 128 130 129 140 129 117 100 100 139 85 52 40 36 35 30 30 28 30 29 25 17 11 5 0 356 357 359 6
231 235 240 241 242 236 232 232 239 248 244 247 247 239 225 226 229 235 239 238 242 247 255 262 260 261 260 259 261 268 263 268 293 301 278 280 282 288 299 298 271 238 268 270 308 299 274 181 181 177 175 143 176 128 255 140 109 42 32 29 28 22 28 29 29 25 21 16 10 4 358 357 359 4
229 230 235 240 235 230 226 227 229 232 236 235 248 254 234 224 228 233 238 238 236 242 251 255 258 262 261 260 252 267 269 269 266 262 248 270 281 277 281 278 251 211 252 282 296 253 226 220 185 198 181 146 184 126 115 37 14 28 21 24 21 20 22 27 26 22 22 21 16 8 1 358 0 2
233 232 230 237 229 220 227 233 229 230 227 228 233 240 247 249 241 240 238 239 237 240 249 253 253 257 265 264 270 270 278 263 265 275 276 276 277 278 294 300 290 202 239 282 290 270 201 236 217 207 188 169 154 145 79 58 32 13 17 11 14 17 18 21 21 18 19 22 20 12 5 3 1 1
233 233 233 232 232 226 228 232 226 221 224 226 228 232 235 235 238 240 244 247 246 240 246 248 249 256 255 259 251 264 269 263 261 257 260 259 264 273 271 278 286 291 219 287 287 292 153 206 224 207 185 164 192 75 77 109 26 15 15 10 12 16 18 18 17 15 13 18 21 13 8 1 358 355
232 231 233 236 230 235 216 221 234 239 226 215 223 229 232 238 236 234 236 241 247 257 254 253 257 249 257 256 251 247 253 247 261 262 253 246 251 256 264 271 282 286 253 263 283 288 235 176 216 227 174 179 161 141 153 106 37 24 16 13 16 19 17 18 18 13 10 12 16 21 16 5 354 349
230 228 229 231 233 232 223 218 223 228 233 233 219 219 225 232 231 227 230 234 238 241 250 255 256 253 243 250 251 246 229 232 250 253 265 263 260 252 258 277 280 287 244 261 292 290 270 198 225 231 173 172 156 167 97 121 60 15 20 16 25 22 16 16 20 16 10 8 11 16 17 9 359 347
229 229 227 229 235 235 228 219 213 222 225 227 229 230 229 229 234 232 226 222 224 225 229 237 243 251 250 252 252 250 234 232 241 251 262 269 270 273 282 275 256 265 238 248 258 273 298 161 229 230 179 172 181 163 138 176 144 31 2 16 34 30 20 14 16 18 15 11 10 12 12 5 355 343
227 228 228 229 232 235 236 222 202 210 225 232 233 234 235 238 239 240 231 222 222 230 228 227 237 244 248 249 255 262 260 246 243 246 251 252 247 254 258 264 261 261 244 225 242 261 279 226 249 240 172 176 196 174 187 150 188 174 305 347 42 42 35 22 15 15 16 14 11 9 9 4 350 338
228 227 226 225 233 236 235 227 201 202 208 232 237 238 241 242 246 247 240 204 215 224 231 241 245 251 255 255 253 252 246 247 254 253 256 249 231 233 250 254 252 250 254 223 227 260 272 244 240 241 181 209 222 196 197 161 161 187 215 238 96 61 50 40 23 16 16 15 12 9 8 3 348 323
230 229 224 223 228 234 237 228 204 196 194 221 232 236 240 243 244 246 245 239 211 212 221 226 234 238 243 244 249 251 236 208 210 223 234 234 229 246 244 253 258 268 262 256 229 249 258 264 228 230 181 200 228 223 192 176 138 160 198 204 142 87 66 55 43 24 20 16 11 13 9 6 343 336
231 233 225 221 225 231 236 232 212 194 190 217 225 230 236 241 245 246 247 240 245 217 203 221 225 238 237 236 232 231 222 202 205 220 232 238 232 238 236 240 258 271 260 223 164 233 254 252 228 205 215 250 198 192 182 182 192 190 181 171 159 108 81 80 74 46 38 21 15 18 12 10 349 350
229 230 234 222 216 224 232 235 223 200 193 210 222 228 234 238 242 247 245 241 242 242 235 238 225 228 225 212 209 220 211 198 205 217 223 228 224 224 232 232 245 259 268 137 169 215 256 243 245 197 238 267 258 157 189 189 198 204 199 169 153 159 161 132 135 129 72 48 43 34 21 13 2 354
235 233 229 237 212 210 221 228 230 213 199 207 219 224 231 232 239 245 251 246 230 244 245 242 241 243 237 231 228 215 208 204 201 208 217 223 221 219 226 234 237 253 253 200 170 221 243 228 241 194 226 223 253 222 172 190 194 202 190 189 158 92 55 60 20 33 139 149 124 77 51 11 7 8
236 234 232 228 216 205 211 220 226 222 205 206 215 228 230 234 237 240 246 256 255 246 243 242 242 240 240 241 237 229 221 221 211 208 208 213 221 219 225 231 236 249 249 168 165 200 226 223 222 210 201 216 233 229 215 206 196 199 189 185 159 120 109 69 9 34 356 6 92 43 69 161 247 35
232 231 231 233 223 210 209 214 221 222 211 201 220 230 233 233 235 236 244 251 252 252 252 250 248 245 244 245 242 231 228 228 218 216 216 214 214 220 227 234 235 243 258 158 178 195 211 230 212 215 211 206 230 208 228 236 195 169 196 192 180 152 155 192 251 284 332 331 9 182 209 177 174 193
232 233 230 231 222 214 212 215 219 220 207 212 219 224 230 233 234 233 237 237 240 243 248 248 253 248 239 242 242 236 230 233 216 215 222 223 218 214 223 226 234 237 238 200 185 197 207 220 210 213 217 201 218 229 233 204 211 189 205 180 183 175 164 197 227 272 272 298 325 352 359 6 66 200
236 234 231 231 223 220 217 216 217 220 217 219 224 223 226 227 229 223 225 232 233 245 244 241 236 238 237 235 237 236 236 234 227 218 233 220 217 211 218 236 238 236 230 224 213 207 206 214 220 201 202 210 222 228 229 232 189 196 197 187 199 190 187 196 231 247 280 297 322 325 336 337 336 342
233 236 230 227 225 224 223 216 211 212 213 217 222 225 223 218 220 216 216 218 222 231 233 231 232 234 235 234 235 233 229 235 231 237 233 208 212 217 226 224 224 222 221 220 224 218 210 209 212 199 190 192 209 219 203 204 202 214 179 203 211 172 197 203 215 220 228 255 263 284 289 310 325 327
240 239 238 234 227 230 221 217 217 218 222 218 220 222 213 213 214 210 210 214 215 222 227 231 232 234 236 239 235 222 222 233 230 225 239 234 239 227 216 217 221 211 216 216 218 212 207 207 200 187 188 190 193 207 188 190 213 199 194 202 196 219 182 187 206 219 219 231 252 240 244 241 242 250
227 233 232 232 237 229 233 225 225 224 220 218 215 215 209 209 212 216 213 215 223 226 229 237 238 237 227 229 230 233 233 236 241 234 232 238 237 222 215 214 222 213 209 210 216 214 206 207 195 186 195 181 187 178 173 193 207 207 208 195 202 218 207 205 202 206 191 231 259 249 234 241 247 214
224 231 237 237 228 227 226 224 221 220 214 219 223 224 218 214 213 214 212 213 214 215 218 224 223 229 226 230 224 239 250 249 243 221 229 230 231 218 217 225 227 213 211 207 206 200 204 201 183 177 186 185 188 165 165 188 206 211 210 197 198 212 216 215 222 205 162 201 244 249 223 230 232 227
216 217 227 228 229 227 225 226 226 224 219 217 220 224 220 221 223 218 216 218 219 213 216 220 221 226 227 228 229 244 245 247 242 219 213 226 221 222 221 225 232 230 226 223 206 199 189 167 133 114 98 83 63 175 184 194 201 198 209 206 199 212 215 214 213 205 198 227 243 259 253 223 207 208
212 222 220 224 227 229 229 228 226 223 221 218 218 221 215 211 218 219 221 220 215 215 218 221 226 228 220 238 243 245 244 243 239 226 210 220 225 226 227 224 224 219 218 220 212 178 166 156 154 148 146 155 181 214 234 231 198 207 201 204 206 216 217 212 217 207 209 225 229 253 266 265 214 191
209 214 220 223 224 224 227 229 227 224 224 221 217 215 217 218 217 214 220 209 211 221 225 225 224 227 239 242 238 239 242 232 228 196 208 212 219 222 224 222 220 220 214 218 210 176 173 167 169 170 176 183 199 212 208 199 201 207 207 207 204 216 220 217 213 218 221 230 227 241 261 268 269 193
215 215 217 224 224 222 226 227 226 224 224 223 217 214 219 222 219 216 215 202 222 226 227 224 225 230 238 235 235 236 234 221 228 210 216 211 211 212 216 219 215 220 208 206 202 178 170 171 175 180 180 178 194 211 212 106 215 235 221 214 211 209 210 202 202 224 229 229 230 228 241 256 262 264
219 215 218 222 225 225 226 226 224 223 219 218 219 219 220 226 229 220 204 204 216 226 224 232 241 235 233 220 227 233 231 226 225 221 216 210 206 208 211 218 219 217 218 185 171 178 178 175 178 186 180 185 188 187 187 193 185 218 217 216 222 214 198 198 218 229 228 217 231 230 232 243 248 257
221 222 220 225 223 224 224 223 221 221 220 219 217 219 220 223 225 223 222 219 218 228 231 230 230 229 227 222 217 221 220 218 216 217 207 204 202 209 213 219 221 210 189 193 181 162 172 177 180 189 194 189 186 188 181 197 208 200 181 195 211 224 207 210 231 235 237 228 219 221 235 245 276 85
219 223 226 227 227 222 224 222 221 223 226 220 217 216 214 216 220 221 221 221 226 223 226 229 228 223 222 221 214 220 225 223 222 219 207 199 204 207 219 224 218 201 192 196 183 181 181 184 176 197 197 182 168 183 203 208 123 135 139 195 215 223 225 217 228 239 241 242 248 241 248 230 242 206
216 218 225 227 229 225 223 227 227 225 224 222 218 214 214 215 218 222 219 219 215 213 222 224 220 217 217 211 210 214 217 220 223 222 214 204 200 208 216 213 212 199 194 202 198 186 188 181 199 184 137 143 113 105 183 216 216 214 209 197 192 220 241 290 258 240 245 233 230 247 260 264 273 260
205 214 221 223 224 225 224 227 225 222 223 219 220 216 211 213 220 213 211 206 215 219 221 220 215 211 212 207 207 208 218 221 218 212 204 205 210 216 216 204 209 208 203 207 203 193 158 170 159 154 173 149 140 187 206 212 218 220 220 200 161 182 212 232 249 267 288 270 240 244 255 260 243 257
203 218 223 224 223 222 223 222 217 217 219 218 218 218 216 218 218 208 220 228 215 214 218 214 210 203 205 202 203 205 213 217 214 207 202 204 211 216 204 205 213 210 208 212 207 170 162 166 169 167 171 186 192 194 205 214 219 222 221 205 185 173 178 195 222 239 260 276 283 278 287 295 295 283
213 216 223 221 219 220 221 218 216 213 216 216 215 214 219 221 218 212 214 225 219 214 208 207 200 197 197 199 201 203 207 210 210 210 205 205 215 220 214 209 208 208 196 192 192 177 168 162 167 169 179 187 192 198 209 212 218 222 229 236 183 172 192 177 174 187 216 230 236 241 251 253 250 273
217 218 220 219 220 223 220 214 210 211 212 218 220 222 219 222 226 223 224 219 216 211 198 194 199 197 195 191 190 203 210 206 202 199 195 202 213 217 215 209 195 191 167 191 183 154 150 156 157 168 186 190 199 198 206 216 225 229 225 205 200 200 204 188 208 215 225 232 207 210 228 236 247 255